EW6366 Weather Reports


time (UTC)temp
C
wind
direction
speed
KPH
gust
KPH
rain 1hr
cm
rain 24hr
cm
rain mn
cm
humidity
%
barometer
mb
20260508074607 7 360 0.0 0.0 0.00 0.05 0.00 65 1009.9
20260508073055 7 360 0.0 0.0 0.00 0.05 0.00 63 1009.9
20260508071532 7 360 0.0 0.0 0.00 0.05 0.00 62 1009.8
20260508070024 8 360 0.0 0.0 0.00 0.05 0.00 61 1009.9
20260508064523 8 360 0.0 0.0 0.00 0.05 0.00 60 1009.9
20260508063021 9 360 0.0 0.0 0.00 0.05 0.00 57 1009.8
20260508061518 9 360 0.0 0.0 0.00 0.05 0.00 57 1009.7
20260508060024 9 360 0.0 0.0 0.00 0.05 0.00 56 1009.8
20260508054531 10 360 0.0 0.0 0.00 0.10 0.05 56 1009.8
20260508053016 10 360 0.0 0.0 0.00 0.10 0.05 56 1009.7
20260508051513 10 360 0.0 1.6 0.00 0.10 0.05 58 1009.7
20260508050013 10 360 0.0 0.0 0.00 0.10 0.05 58 1009.7
20260508044513 10 360 0.0 0.0 0.00 0.15 0.05 59 1009.7
20260508043013 10 360 0.0 0.0 0.00 0.15 0.05 62 1009.7
20260508041514 10 360 0.0 0.0 0.00 0.15 0.05 60 1009.6
20260508040012 10 360 0.0 0.0 0.00 0.15 0.05 58 1009.6
20260508034511 10 360 0.0 0.0 0.00 0.15 0.05 60 1009.5
20260508033014 10 360 0.0 0.0 0.00 0.15 0.05 60 1009.3
20260508031513 10 360 0.0 0.0 0.00 0.15 0.05 62 1009.2
20260508030010 11 360 0.0 1.6 0.00 0.15 0.05 64 1008.8
20260508024510 11 360 0.0 0.0 0.00 0.15 0.05 64 1008.8
20260508023009 12 360 0.0 0.0 0.00 0.15 0.05 62 1008.7
20260508021510 12 360 0.0 0.0 0.00 0.15 0.05 58 1008.5
20260508020008 12 360 0.0 0.0 0.00 0.15 0.05 57 1008.3
20260508014508 12 360 0.0 1.6 0.00 0.15 0.05 57 1008.1
20260508013007 12 360 0.0 0.0 0.00 0.15 0.05 57 1008.0
20260508011507 13 360 0.0 1.6 0.00 0.15 0.05 55 1008.0
20260508010016 13 360 0.0 4.8 0.00 0.15 0.05 57 1007.9
20260508004514 15 360 3.2 20.9 0.00 0.15 0.05 49 1007.7
20260508003007 15 360 0.0 0.0 0.00 0.15 0.05 48 1007.4
20260508001506 16 360 0.0 0.0 0.00 0.15 0.05 47 1007.2
20260508000004 16 360 0.0 0.0 0.00 0.15 0.05 40 1007.0
20260507234504 16 360 0.0 0.0 0.00 0.15 0.05 41 1006.9
20260507233003 16 360 0.0 6.4 0.00 0.15 0.05 42 1006.8
20260507231503 16 360 0.0 3.2 0.00 0.15 0.05 43 1006.7
20260507230001 16 360 0.0 1.6 0.00 0.15 0.05 44 1006.7
20260507224604 16 360 0.0 3.2 0.00 0.15 0.05 43 1006.7
20260507224503 16 360 0.0 3.2 0.00 0.15 0.05 47 1006.8
20260507223100 16 360 0.0 1.6 0.00 0.15 0.05 47 1006.8
20260507221559 16 360 0.0 9.7 0.00 0.15 0.05 45 1006.9
20260507220056 16 360 0.0 1.6 0.00 0.15 0.05 43 1007.0
20260507214555 16 360 0.0 0.0 0.00 0.15 0.05 44 1007.0
20260507213054 16 360 0.0 6.4 0.00 0.15 0.05 44 1007.1
20260507211555 15 54 0.0 12.9 0.00 0.15 0.05 45 1007.2
20260507210056 16 360 0.0 16.1 0.00 0.15 0.05 41 1007.4
20260507204550 16 351 0.0 4.8 0.00 0.15 0.05 42 1007.3
20260507203048 16 360 0.0 1.6 0.00 0.15 0.05 42 1007.3
20260507201547 15 360 0.0 1.6 0.00 0.15 0.05 43 1007.3
20260507200046 15 360 0.0 0.0 0.00 0.15 0.05 40 1007.3
20260507194548 15 360 0.0 0.0 0.00 0.15 0.05 44 1007.4
20260507193044 15 360 0.0 0.0 0.00 0.15 0.05 48 1007.5
20260507191541 16 360 0.0 6.4 0.00 0.15 0.05 47 1007.7
20260507190039 16 360 0.0 20.9 0.00 0.15 0.05 47 1007.8
20260507184537 15 360 0.0 4.8 0.00 0.15 0.05 51 1008.1
20260507183045 15 360 0.0 3.2 0.00 0.15 0.05 51 1008.2
20260507181539 15 360 0.0 17.7 0.00 0.15 0.05 53 1008.2
20260507180034 15 360 0.0 14.5 0.00 0.15 0.05 42 1008.3
20260507174530 15 360 0.0 19.3 0.00 0.15 0.05 43 1008.2
20260507173029 15 360 4.8 19.3 0.00 0.15 0.05 43 1008.4
20260507171529 15 360 1.6 17.7 0.00 0.15 0.05 45 1008.4
20260507170026 15 360 1.6 24.1 0.00 0.15 0.05 45 1008.4
20260507164529 15 360 0.0 19.3 0.00 0.15 0.05 46 1008.4
20260507163025 15 360 1.6 27.4 0.00 0.15 0.05 49 1008.6
20260507161535 14 360 0.0 1.6 0.00 0.15 0.05 51 1008.7
20260507160036 13 360 0.0 1.6 0.00 0.15 0.05 56 1008.8
20260507154518 13 360 0.0 1.6 0.00 0.15 0.05 56 1009.0
20260507153017 13 360 0.0 0.0 0.00 0.15 0.05 57 1009.1
20260507151516 12 360 0.0 0.0 0.00 0.15 0.05 61 1009.2
20260507150020 12 360 0.0 0.0 0.00 0.15 0.05 64 1009.3
20260507144526 11 360 0.0 1.6 0.00 0.15 0.05 64 1009.3
20260507143015 11 360 0.0 1.6 0.00 0.15 0.05 64 1009.3
20260507141613 11 360 0.0 0.0 0.00 0.15 0.05 67 1009.3
20260507140011 10 360 0.0 0.0 0.00 0.15 0.05 67 1009.1
20260507134511 11 360 0.0 1.6 0.00 0.15 0.05 71 1009.3
20260507133012 10 360 0.0 0.0 0.00 0.15 0.05 67 1009.3
20260507131508 8 360 0.0 0.0 0.00 0.15 0.05 73 1009.4
20260507130021 7 360 0.0 0.0 0.00 0.15 0.05 72 1009.7
20260507124506 8 360 0.0 0.0 0.00 0.15 0.05 70 1010.0
20260507123005 8 360 0.0 0.0 0.00 0.15 0.05 68 1010.0
20260507121504 9 360 0.0 0.0 0.00 0.15 0.05 67 1009.9
20260507120004 10 360 0.0 22.5 0.00 0.15 0.05 61 1010.1
20260507114505 11 360 0.0 0.0 0.00 0.15 0.05 59 1009.7
20260507113006 10 360 0.0 0.0 0.00 0.15 0.05 59 1009.5
20260507111503 11 360 0.0 0.0 0.00 0.15 0.05 59 1009.5
20260507110101 11 360 6.4 29.0 0.00 0.15 0.05 60 1009.7
20260507104600 10 360 0.0 1.6 0.00 0.15 0.05 60 1009.7
20260507103058 10 360 0.0 3.2 0.00 0.15 0.05 61 1009.7
20260507101559 9 360 0.0 1.6 0.00 0.15 0.05 63 1009.8
20260507100058 9 360 0.0 0.0 0.00 0.15 0.05 65 1009.8
20260507094555 8 360 0.0 0.0 0.00 0.15 0.05 66 1009.8
20260507093055 8 360 0.0 0.0 0.00 0.15 0.05 68 1009.8
20260507091554 8 360 0.0 0.0 0.03 0.15 0.05 72 1010.0
20260507090052 8 360 0.0 0.0 0.05 0.15 0.05 71 1010.0
20260507084552 8 360 0.0 0.0 0.05 0.15 0.05 74 1010.0
20260507083049 8 360 0.0 0.0 0.05 0.15 0.05 74 1010.0
20260507081546 9 360 0.0 0.0 0.03 0.13 0.03 73 1010.4
20260507080043 10 360 0.0 0.0 0.00 0.10 0.00 67 1010.4